This demonstration page uses our WeatherBlox Daily Observations layout. Learn more.

Left ArrowRight Arrow

Hourly Observations for April 28, 2018

Temp ( °F °C ) Dew Point ( °F °C ) Humidity (%) Winds ( mph kmh ) Pressure ( in mb ) Visibility ( mi km ) Precip ( " mm )
12:53 am 00:53 Cloudy 53 11.7 49 9.4 86 86 undefined N/A 30.01 1016 10 16 0.00 0.00
1:53 am 01:53 Cloudy 53 11.7 48 8.9 83 83 undefined N/A 30.00 1016 10 16 0.00 0.03
2:53 am 02:53 Cloudy 52 11.1 49 9.4 89 89 N 5 7 29.99 1016 10 16 0.00 0.03
3:53 am 03:53 Cloudy 51 10.6 49 9.4 92 92 WNW 3 6 29.99 1016 10 16 0.00 0.00
4:53 am 04:53 Cloudy 53 11.7 48 8.9 83 83 WSW 5 7 29.99 1016 10 16 0.00 0.00
5:53 am 05:53 Cloudy 52 11.1 47 8.3 83 83 SSW 7 11 30.00 1016 10 16 0.00 0.00
6:53 am 06:53 Cloudy 51 10.6 46 7.8 83 83 S 8 13 30.01 1016 10 16 0.00 0.00
7:53 am 07:53 Cloudy 52 11.1 48 8.9 86 86 SSE 6 9 30.01 1016 10 16 0.00 0.00
8:53 am 08:53 Cloudy 53 11.7 47 8.3 80 80 SSW 7 11 30.02 1017 10 16 0.00 0.00
9:53 am 09:53 Cloudy 54 12.2 47 8.3 77 77 SSW 9 15 30.02 1017 10 16 0.00 0.00
10:53 am 10:53 Cloudy 56 13.3 48 8.9 75 75 S 10 17 30.01 1016 10 16 0.00 0.00
11:12 am 11:12 Mostly Cloudy 57 13.9 48 8.9 72 72 S 9 15 30.00 1016 10 16 0.00 0.00
11:53 am 11:53 Mostly Cloudy 59 15 47 8.3 64 64 S 9 15 30.00 1016 10 16 0.00 0.00
12:07 pm 12:07 Partly Cloudy 60 15.6 46 7.8 60 60 SSE 15 24 29.97 1015 10 16 0.00 0.00
12:53 pm 12:53 Mostly Cloudy with Light Rain 60 15.6 45 7.2 58 58 S 14 22 29.98 1015 10 16 0.00 0.03
1:53 pm 13:53 Cloudy with Light Rain 55 12.8 50 10 83 83 SSW 7 11 29.99 1016 8 13 0.11 2.79
2:42 pm 14:42 Cloudy with Heavy Rain 54 12.2 50 10 87 87 W 6 9 30.00 1016 2 3 0.03 0.76
2:53 pm 14:53 Cloudy with Light Rain 54 12.2 50 10 87 87 NNW 5 7 29.98 1015 4 6 0.06 1.52
3:53 pm 15:53 Cloudy 58 14.4 50 10 75 75 NNE 3 6 29.95 1014 10 16 0.00 0.03
4:53 pm 16:53 Cloudy with Light Rain 58 14.4 51 10.6 78 78 N 5 7 29.94 1014 9 14 0.00 0.03
5:53 pm 17:53 Cloudy with Light Rain 56 13.3 52 11.1 87 87 ENE 3 6 29.95 1014 4 6 0.02 0.51
6:53 pm 18:53 Cloudy 55 12.8 52 11.1 90 90 ENE 7 11 29.94 1014 10 16 0.05 1.27
7:53 pm 19:53 Cloudy 54 12.2 53 11.7 97 97 E 7 11 29.94 1014 10 16 0.10 2.54
8:10 pm 20:10 Cloudy 54 12.2 52 11.1 93 93 NE 8 13 29.94 1014 10 16 0.00 0.00
8:53 pm 20:53 Cloudy 53 11.7 52 11.1 96 96 N 8 13 29.95 1014 10 16 0.00 0.00
9:53 pm 21:53 Mostly Clear 52 11.1 50 10 93 93 VRB 5 7 29.97 1015 10 16 0.00 0.00
10:53 pm 22:53 Mostly Clear 50 10 49 9.4 96 96 Calm 29.98 1015 10 16 0.00 0.00
11:53 pm 23:53 Cloudy 50 10 49 9.4 96 96 N 3 6 29.99 1016 10 16 0.00 0.00

Powered by AerisWeather